Location: Beetenbrück
(52.8113°N, 9.5946°E)
Time: 21:05:59
(UTC+00:00)

DNEPR-1 R/B - Pass Details

Date: 14 April 2026
Orbit: 582 x 1331 km, 64.6° (Epoch: 12 May)

Event Time Altitude Azimuth Distance (km) Brightness Sun altitude
Rises 20:51:20 0° 226° (SW) 2,800 6.9 -19.8°
Reaches altitude 10° 20:53:31 10° 228° (SW) 1,898 6.0 -20.0°
Maximum altitude 20:57:42 79° 315° (NW) 614 3.5 -20.4°
Drops below altitude 10° 21:02:13 10° 43° (NE) 2,046 6.3 -20.8°
Sets 21:04:39 0° 45° (NE) 3,040 7.2 -21.0°
